Big Bear Station Historical Data
Daily Summary for March 26, 2017 Units:  English    Metric   Both
« Previous Day
Next Day »
Daily Weekly Monthly Yearly Custom
  High: Low: Average:
Temperature: 54.7 °F 27.0 °F 39.8 °F
Dew Point: 41.4 °F 18.5 °F 30.9 °F
Humidity: 93 % 32 % 73 %
Wind Speed: 6.8 mph 0.0 mph 1.6 mph
Wind Gust: -999.0 mph - -
Wind:- - WSW
Pressure: 30.13 in 30.08 in -
Precipitation: 0.00 in    
Historical Graphs
 
 
Tabular Data for March 26, 2017
Time Temperature Dew Point Pressure Wind Wind Speed Wind Gust Humidity Rainfall Rate (Hourly)
00:14 29.7 °F 27.7 °F 30.10 in Calm   -999.0 mph 92 % 0 in
00:30 29.3 °F 27.3 °F 30.11 in Calm   -999.0 mph 92 % 0 in
00:45 28.8 °F 26.2 °F 30.10 in Calm   -999.0 mph 90 % 0 in
01:00 28.6 °F 26.0 °F 30.10 in Calm   -999.0 mph 90 % 0 in
01:15 28.4 °F 25.6 °F 30.10 in Calm   -999.0 mph 89 % 0 in
01:30 28.4 °F 25.3 °F 30.10 in Calm   -999.0 mph 88 % 0 in
01:46 28.2 °F 25.1 °F 30.10 in Calm   -999.0 mph 88 % 0 in
02:01 27.9 °F 24.5 °F 30.10 in Calm   -999.0 mph 87 % 0 in
02:16 27.9 °F 24.5 °F 30.09 in Calm   -999.0 mph 87 % 0 in
02:31 27.7 °F 24.6 °F 30.09 in Calm   -999.0 mph 88 % 0 in
02:46 27.7 °F 25.7 °F 30.09 in Calm   -999.0 mph 92 % 0 in
03:02 27.7 °F 25.9 °F 30.09 in Calm   -999.0 mph 93 % 0 in
03:17 27.5 °F 25.7 °F 30.09 in Calm   -999.0 mph 93 % 0 in
03:32 27.7 °F 25.4 °F 30.08 in Calm   -999.0 mph 91 % 0 in
03:47 27.3 °F 25.0 °F 30.08 in Calm   -999.0 mph 91 % 0 in
04:02 27.7 °F 24.3 °F 30.08 in Calm   -999.0 mph 87 % 0 in
04:18 27.3 °F 23.9 °F 30.08 in Calm   -999.0 mph 87 % 0 in
04:34 27.3 °F 23.9 °F 30.08 in Calm   -999.0 mph 87 % 0 in
04:49 27.3 °F 22.8 °F 30.08 in Calm   -999.0 mph 83 % 0 in
05:04 27.0 °F 23.4 °F 30.08 in Calm   -999.0 mph 86 % 0 in
05:19 27.5 °F 23.0 °F 30.08 in Calm   -999.0 mph 83 % 0 in
05:34 27.1 °F 22.6 °F 30.09 in Calm   -999.0 mph 83 % 0 in
05:50 27.0 °F 23.1 °F 30.09 in Calm   -999.0 mph 85 % 0 in
06:05 27.0 °F 22.5 °F 30.09 in Calm   -999.0 mph 83 % 0 in
06:20 27.3 °F 23.1 °F 30.09 in Calm   -999.0 mph 84 % 0 in
06:35 27.1 °F 23.2 °F 30.09 in Calm   -999.0 mph 85 % 0 in
06:50 27.3 °F 23.7 °F 30.09 in Calm   -999.0 mph 86 % 0 in
07:06 27.3 °F 23.4 °F 30.09 in Calm   -999.0 mph 85 % 0 in
07:21 27.5 °F 23.9 °F 30.09 in Calm   -999.0 mph 86 % 0 in
07:36 28.0 °F 24.4 °F 30.10 in Calm   -999.0 mph 86 % 0 in
07:51 28.8 °F 24.9 °F 30.10 in Calm   -999.0 mph 85 % 0 in
08:06 29.3 °F 25.4 °F 30.10 in Calm   -999.0 mph 85 % 0 in
08:22 32.7 °F 27.2 °F 30.10 in Calm   -999.0 mph 80 % 0 in
08:37 33.3 °F 28.1 °F 30.11 in Calm   -999.0 mph 81 % 0 in
08:52 34.9 °F 29.4 °F 30.11 in Calm   -999.0 mph 80 % 0 in
09:07 37.4 °F 29.9 °F 30.11 in Calm   -999.0 mph 74 % 0 in
09:52 44.1 °F 19.5 °F 30.11 in WNW 3.2 mph -999.0 mph 37 % 0 in
10:08 45.7 °F 20.2 °F 30.12 in NW 4.2 mph -999.0 mph 36 % 0 in
10:23 46.8 °F 18.5 °F 30.12 in West 3.2 mph -999.0 mph 32 % 0 in
10:38 48.4 °F 22.7 °F 30.12 in NNW 2.7 mph -999.0 mph 36 % 0 in
10:53 50.0 °F 22.7 °F 30.12 in NW 4.7 mph -999.0 mph 34 % 0 in
11:09 51.4 °F 26.0 °F 30.13 in NNW 2.7 mph -999.0 mph 37 % 0 in
11:24 52.3 °F 28.1 °F 30.13 in NW 4.2 mph -999.0 mph 39 % 0 in
11:54 52.2 °F 32.6 °F 30.13 in East 3.7 mph -999.0 mph 47 % 0 in
12:10 52.3 °F 32.7 °F 30.13 in NW 5.8 mph -999.0 mph 47 % 0 in
12:25 52.9 °F 33.7 °F 30.13 in NW 6.3 mph -999.0 mph 48 % 0 in
12:41 53.8 °F 32.9 °F 30.13 in North 3.7 mph -999.0 mph 45 % 0 in
12:56 54.5 °F 34.1 °F 30.13 in SW 4.2 mph -999.0 mph 46 % 0 in
13:11 52.7 °F 34.6 °F 30.13 in South 4.7 mph -999.0 mph 50 % 0 in
13:27 53.6 °F 36.9 °F 30.12 in WNW 3.2 mph -999.0 mph 53 % 0 in
13:42 54.1 °F 36.4 °F 30.12 in NNE 2.2 mph -999.0 mph 51 % 0 in
13:57 54.7 °F 37.4 °F 30.13 in SW 2.7 mph -999.0 mph 52 % 0 in
14:12 53.6 °F 36.9 °F 30.12 in NW 2.7 mph -999.0 mph 53 % 0 in
14:28 54.3 °F 38.5 °F 30.12 in NNW 5.3 mph -999.0 mph 55 % 0 in
14:43 53.8 °F 39.8 °F 30.11 in NNW 4.2 mph -999.0 mph 59 % 0 in
14:58 53.4 °F 39.4 °F 30.12 in NW 2.7 mph -999.0 mph 59 % 0 in
15:14 52.9 °F 40.2 °F 30.11 in NW 4.2 mph -999.0 mph 62 % 0 in
15:29 52.3 °F 38.4 °F 30.11 in WNW 6.3 mph -999.0 mph 59 % 0 in
15:45 51.3 °F 38.7 °F 30.11 in NW 5.3 mph -999.0 mph 62 % 0 in
16:00 50.4 °F 38.3 °F 30.11 in NNW 6.8 mph -999.0 mph 63 % 0 in
16:16 50.5 °F 39.2 °F 30.12 in NNW 6.8 mph -999.0 mph 65 % 0 in
16:31 49.5 °F 39.8 °F 30.12 in WNW 3.2 mph -999.0 mph 69 % 0 in
16:46 49.3 °F 40.3 °F 30.11 in WNW 5.3 mph -999.0 mph 71 % 0 in
17:02 50.5 °F 40.7 °F 30.12 in NW 4.2 mph -999.0 mph 69 % 0 in
17:17 50.0 °F 41.3 °F 30.11 in North 3.7 mph -999.0 mph 72 % 0 in
17:32 51.6 °F 41.4 °F 30.12 in NNE 1.7 mph -999.0 mph 68 % 0 in
17:47 49.3 °F 40.7 °F 30.12 in NE 1.1 mph -999.0 mph 72 % 0 in
18:03 47.7 °F 40.2 °F 30.12 in Calm   -999.0 mph 75 % 0 in
18:18 46.8 °F 40.0 °F 30.12 in Calm   -999.0 mph 77 % 0 in
18:33 46.2 °F 39.7 °F 30.12 in Calm   -999.0 mph 78 % 0 in
18:48 45.1 °F 39.3 °F 30.11 in SSE 1.1 mph -999.0 mph 80 % 0 in
19:04 43.9 °F 38.4 °F 30.11 in Calm   -999.0 mph 81 % 0 in
19:19 43.0 °F 37.6 °F 30.11 in Calm   -999.0 mph 81 % 0 in
19:34 42.4 °F 37.0 °F 30.10 in Calm   -999.0 mph 81 % 0 in
19:49 42.3 °F 37.2 °F 30.11 in West 1.1 mph -999.0 mph 82 % 0 in
20:04 42.1 °F 37.3 °F 30.10 in Calm   -999.0 mph 83 % 0 in
20:20 41.5 °F 36.7 °F 30.10 in SSE 1.1 mph -999.0 mph 83 % 0 in
20:35 41.5 °F 36.1 °F 30.11 in NW 1.7 mph -999.0 mph 81 % 0 in
20:51 42.1 °F 36.4 °F 30.11 in Calm   -999.0 mph 80 % 0 in
21:06 41.9 °F 35.9 °F 30.11 in SSE 1.7 mph -999.0 mph 79 % 0 in
21:22 41.0 °F 34.3 °F 30.12 in SE 1.7 mph -999.0 mph 77 % 0 in
21:37 40.6 °F 33.3 °F 30.12 in Calm   -999.0 mph 75 % 0 in
21:52 40.3 °F 33.3 °F 30.12 in SSE 1.7 mph -999.0 mph 76 % 0 in
22:07 39.9 °F 33.0 °F 30.12 in SSW 1.7 mph -999.0 mph 76 % 0 in
22:22 39.4 °F 32.8 °F 30.12 in South 1.7 mph -999.0 mph 77 % 0 in
22:38 39.0 °F 32.4 °F 30.12 in SSE 1.7 mph -999.0 mph 77 % 0 in
22:53 39.0 °F 31.7 °F 30.12 in SSW 2.2 mph -999.0 mph 75 % 0 in
23:08 38.3 °F 31.7 °F 30.11 in Calm   -999.0 mph 77 % 0 in
23:24 38.5 °F 32.6 °F 30.12 in SSE 1.7 mph -999.0 mph 79 % 0 in
23:39 37.9 °F 31.7 °F 30.11 in Calm   -999.0 mph 78 % 0 in
23:54 37.8 °F 31.2 °F 30.11 in Calm   -999.0 mph 77 % 0 in
Big Bear CA Weather
Compliments of Weather Underground - 1.5 mb